DW6386 Weather Reports


Display with metric or nautical units.
time (UTC)temp
F
wind
direction
speed
MPH
gust
MPH
rain 1hr
in
rain 24hr
in
rain mn
in
humidity
%
barometer
mb
20260504231524 73 72 1.0 7.0 0.00 0.00 0.00 52 1010.8
20260504230016 74 43 3.0 8.0 0.00 0.00 0.00 49 1010.8
20260504224514 75 35 4.0 9.0 0.00 0.00 0.00 45 1010.8
20260504223010 75 24 2.0 7.0 0.00 0.00 0.00 47 1010.8
20260504221509 75 9 2.0 8.0 0.00 0.00 0.00 48 1010.8
20260504220016 75 27 2.0 8.0 0.00 0.00 0.00 48 1010.7
20260504214509 75 56 1.0 7.0 0.00 0.00 0.00 50 1010.8
20260504213009 75 45 1.0 6.0 0.00 0.00 0.00 50 1010.9
20260504211502 75 41 2.0 11.0 0.00 0.00 0.00 51 1011.1
20260504210111 76 54 1.0 11.0 0.00 0.00 0.00 50 1011.2
20260504204604 77 316 2.0 8.0 0.00 0.00 0.00 49 1011.2
20260504203056 77 307 0.0 7.0 0.00 0.00 0.00 50 1011.4
20260504201555 77 56 3.0 10.0 0.00 0.00 0.00 49 1011.7
20260504200051 77 61 2.0 10.0 0.00 0.00 0.00 51 1011.8
20260504194603 77 37 2.0 8.0 0.00 0.00 0.00 50 1012.2
20260504193046 76 52 1.0 9.0 0.00 0.00 0.00 51 1012.3
20260504191548 76 44 2.0 7.0 0.00 0.00 0.00 50 1012.6
20260504190048 75 34 1.0 7.0 0.00 0.00 0.00 51 1012.9
20260504184539 75 359 2.0 9.0 0.00 0.00 0.00 52 1013.1
20260504183032 74 304 0.0 5.0 0.00 0.00 0.00 54 1013.2
20260504181529 73 38 1.0 8.0 0.00 0.00 0.00 53 1013.4
20260504180033 73 39 1.0 5.0 0.00 0.00 0.00 53 1013.6
20260504174522 72 275 0.0 7.0 0.00 0.00 0.00 56 1013.8
20260504173021 71 240 1.0 7.0 0.00 0.00 0.00 55 1014.1
20260504171515 71 323 2.0 7.0 0.00 0.00 0.00 55 1014.3
20260504081548 42 123 0.0 0.0 0.00 0.00 0.00 92 1016.3
20260504044524 45 90 0.0 0.0 0.00 0.00 0.00 85 1016.4
20260504043021 45 87 0.0 0.0 0.00 0.00 0.00 82 1016.4
20260504041518 46 87 0.0 0.0 0.00 0.00 0.00 82 1016.3
20260504040016 46 87 0.0 0.0 0.00 0.00 0.00 80 1016.3
20260504034526 47 87 0.0 0.0 0.00 0.00 0.00 80 1016.5
20260504033015 47 87 0.0 0.0 0.00 0.00 0.00 78 1016.4
20260504031514 48 86 0.0 0.0 0.00 0.00 0.00 74 1016.3
20260504030014 49 86 0.0 0.0 0.00 0.00 0.00 73 1016.3
20260504024514 49 86 0.0 0.0 0.00 0.00 0.00 71 1016.2
20260504023012 50 86 0.0 0.0 0.00 0.00 0.00 69 1016.0
20260504021512 50 81 0.0 0.0 0.00 0.00 0.00 69 1015.6
20260504020014 52 81 0.0 0.0 0.00 0.00 0.00 67 1015.6
20260504014517 52 81 0.0 0.0 0.00 0.00 0.00 65 1015.4
20260504013010 53 80 0.0 0.0 0.00 0.00 0.00 63 1015.4
20260504011510 53 75 0.0 0.0 0.00 0.00 0.00 62 1015.4
20260504010132 54 73 0.0 0.0 0.00 0.00 0.00 56 1015.4
20260504004508 56 73 0.0 0.0 0.00 0.00 0.00 54 1015.4
20260504003007 58 73 0.0 0.0 0.00 0.00 0.00 51 1015.3
20260504001507 60 72 0.0 0.0 0.00 0.00 0.00 46 1015.2
20260504000007 62 64 0.0 0.0 0.00 0.00 0.00 45 1015.1
20260503234508 62 69 0.0 0.0 0.00 0.00 0.00 44 1015.2
20260503233003 63 80 0.0 2.0 0.00 0.00 0.00 51 1015.3